• Join FlightAware (Why Join?)
  • Login
  • US Flag GB Flag 
15:57 EDT


 

Airport Tracker/Info


-or-


 

Live Flight TrackerFlight Track Log ✈ EJA941 ✈ 24-Aug-2013 ✈ KLAX - KASE

Flight Track Log - Related Links

Times and Time Zones

All times are in EDT time to prevent confusion due to time zone crossing. See the EJA941 flight status page for this flight to view local times or setup timezone preferences in your user account.

Time Position Orientation Groundspeed Altitude Reporting Facility
EDT Latitude Longitude Course Direction KTS MPH feet Rate Location/Type
13:44 33.9322 -118.4544 249° West 241 277 2,300  Level Los Angeles Center
13:45 33.9069 -118.5322 249° West 250 288 5,700 3,180 Climbing Los Angeles Center
13:46 33.8533 -118.5022 155° Southeast 242 278 9,000 2,520 Climbing Los Angeles Center
13:47 33.8864 -118.4436 56° Northeast 263 303 11,000 2,160 Climbing Los Angeles Center
13:48 33.9681 -118.3769 34° Northeast 316 364 13,500 1,860 Climbing Los Angeles Center
13:49 34.0206 -118.2781 57° Northeast 343 395 14,900 1,500 Climbing Los Angeles Center
13:50 34.0822 -118.1756 54° Northeast 370 426 16,700 1,740 Climbing Los Angeles Center
13:51 34.1536 -118.0756 49° Northeast 387 445 18,500 1,740 Climbing Los Angeles Center
13:52 34.2242 -117.9719 51° Northeast 397 457 20,400 1,500 Climbing Los Angeles Center
13:53 34.2831 -117.8872 50° Northeast 406 467 21,600 1,560 Climbing Los Angeles Center
13:54 34.3725 -117.7544 51° Northeast 421 484 23,700 1,740 Climbing Los Angeles Center
13:55 34.4567 -117.6319 50° Northeast 441 507 25,300 1,560 Climbing Los Angeles Center
13:56 34.5364 -117.5136 51° Northeast 453 521 27,000 1,740 Climbing Los Angeles Center
13:57 34.6350 -117.3664 51° Northeast 469 540 29,000 1,740 Climbing Los Angeles Center
13:58 34.7186 -117.2408 51° Northeast 479 551 30,700 1,560 Climbing Los Angeles Center
13:59 34.8036 -117.1128 51° Northeast 488 562 32,300 1,440 Climbing Los Angeles Center
14:00 34.8911 -116.9817 51° Northeast 500 575 33,700 1,500 Climbing Los Angeles Center
14:01 34.9986 -116.8189 51° Northeast 512 589 35,500 1,680 Climbing Los Angeles Center
14:02 35.0914 -116.6806 51° Northeast 521 600 37,300 1,680 Climbing Los Angeles Center
14:04 35.1822 -116.5436 51° Northeast 523 602 39,000 780 Climbing Los Angeles Center
14:05 35.2758 -116.4058 50° Northeast 526 605 39,000  Level Los Angeles Center
14:06 35.3936 -116.2750 42° Northeast 565 650 39,000  Level Los Angeles Center
14:07 35.5106 -116.1433 42° Northeast 571 657 39,000  Level Los Angeles Center
14:08 35.6550 -115.9869 41° Northeast 577 664 39,000  Level Los Angeles Center
14:09 35.7503 -115.8825 42° Northeast 575 662 39,000  Level Los Angeles Center
14:10 35.9056 -115.7097 42° Northeast 570 656 39,000  Level Los Angeles Center
14:11 36.0228 -115.5797 42° Northeast 570 656 39,000  Level Los Angeles Center
14:12 36.1294 -115.4381 47° Northeast 573 659 39,000  Level Los Angeles Center
14:13 36.2156 -115.2781 56° Northeast 572 658 39,000  Level Los Angeles Center
14:14 36.2992 -115.1139 58° Northeast 571 657 39,000  Level Los Angeles Center
14:15 36.3994 -114.9183 57° Northeast 566 651 39,000  Level Los Angeles Center
14:16 36.5008 -114.7194 58° Northeast 569 655 39,000  Level Los Angeles Center
14:17 36.5853 -114.5525 58° Northeast 572 658 39,000  Level Los Angeles Center
14:18 36.6694 -114.3856 58° Northeast 572 658 39,000  Level Los Angeles Center
14:19 36.7492 -114.2092 61° Northeast 566 651 39,000  Level Los Angeles Center
14:20 36.8217 -114.0008 66° East 563 648 39,000  Level Los Angeles Center
14:21 36.8719 -113.8517 67° East 564 649 39,000  Level Los Angeles Center
14:22 36.9439 -113.6367 67° East 562 647 39,000  Level Los Angeles Center
14:23 37.0236 -113.4664 60° Northeast 571 657 39,000  Level Los Angeles Center
14:24 37.1178 -113.3069 53° Northeast 574 661 39,000  Level Los Angeles Center
14:25 37.2111 -113.1447 54° Northeast 577 664 39,000  Level Los Angeles Center
14:26 37.3228 -112.9492 54° Northeast 579 666 39,000  Level Los Angeles Center
14:28 37.4153 -112.7869 54° Northeast 581 669 39,000  Level Los Angeles Center
14:29 37.5072 -112.6247 54° Northeast 585 673 39,000  Level Los Angeles Center
14:30 37.5997 -112.4622 54° Northeast 581 669 39,000  Level Los Angeles Center
14:31 37.7083 -112.2650 55° Northeast 576 663 39,000  Level Los Angeles Center
14:32 37.8042 -112.0578 60° Northeast 572 658 39,000  Level Salt Lake Center
14:33 37.8844 -111.8836 60° Northeast 574 661 39,000  Level Salt Lake Center
14:34 37.9644 -111.7100 60° Northeast 574 661 39,000  Level Salt Lake Center
14:35 38.0442 -111.5344 60° Northeast 576 663 39,000  Level Salt Lake Center
14:36 38.1242 -111.3589 60° Northeast 576 663 39,000  Level Salt Lake Center
14:37 38.2033 -111.1819 60° Northeast 577 664 39,000  Level Salt Lake Center
14:38 38.2983 -110.9706 60° Northeast 576 663 39,000  Level Salt Lake Center
14:39 38.3753 -110.7986 60° Northeast 577 664 39,000  Level Salt Lake Center
14:40 38.4464 -110.6250 62° Northeast 577 664 39,000  Level Salt Lake Center
14:41 38.5169 -110.4131 67° East 581 669 39,000  Level Salt Lake Center
14:42 38.5789 -110.2336 66° East 580 667 39,000  Level Salt Lake Center
14:43 38.6208 -110.0122 76° East 574 661 39,000  Level Salt Lake Center
14:44 38.6564 -109.8231 76° East 574 661 39,000 -660 Level Salt Lake Center
14:45 38.6967 -109.6083 76° East 560 644 37,700 -1,320 Descending Salt Lake Center
14:46 38.7300 -109.4247 77° East 556 640 36,300 -1,320 Descending Salt Lake Center
14:47 38.7697 -109.2106 77° East 556 640 35,100 -660 Descending Salt Lake Center
14:48 38.8031 -109.0214 77° East 568 654 35,000 -60 Descending Salt Lake Center
14:49 38.8422 -108.8056 77° East 562 647 35,000 -300 Level Salt Lake Center
14:50 38.8753 -108.6197 77° East 561 646 34,400 -1,200 Descending Salt Lake Center
14:52 38.9178 -108.3714 78° East 556 640 32,400 -1,560 Descending Denver Center
14:53 38.9514 -108.1886 77° East 551 634 31,000 -1,260 Descending Denver Center
14:54 38.9883 -107.9761 77° East 550 633 29,600 -1,380 Descending Denver Center
14:55 39.0258 -107.7633 77° East 549 632 27,900 -1,620 Descending Denver Center
14:56 39.0611 -107.5547 78° East 539 620 26,300 -1,560 Descending Denver Center
14:57 39.0908 -107.3758 78° East 537 618 24,800 -2,280 Descending Denver Center
14:58 39.1692 -107.2103 59° Northeast 490 564 21,700 -2,880 Descending Denver Center
14:59 39.2508 -107.1122 43° Northeast 456 525 18,900 -2,700 Descending Denver Center
15:00 39.3433 -107.0883 11° North 379 436 16,200 -1,500 Descending Denver Center
15:01 39.4283 -107.1222 343° North 295 339 15,900 -360 Descending Denver Center
15:02 39.4733 -107.0733 40° Northeast 248 285 15,500 -1,200 Descending Denver Center
15:03 39.4753 -107.0147 88° East 217 250 13,500 -1,140 Descending Denver Center
15:04 39.4250 -106.9625 141° Southeast 196 226 13,200 -420 Descending Denver Center
15:05 39.3786 -106.9442 163° South 195 224 12,700 -1,260 Descending Denver Center
15:06 39.3289 -106.9200 159° South 166 191 10,700 -1,860 Descending Denver Center
15:07 39.2878 -106.8992 159° South 162 186 8,900 -1,200 Descending Denver Center
15:08 39.2406 -106.8778 161° South 161 185 8,300 -600 Descending Denver Center